Flag for Germany Weather past 2 weeks in Würselen, North Rhine-Westphalia, Germany

Now
61 °F

Sunny.


Feels Like: 61 °F
Forecast: 49 / 59 °F
Wind: 3 mph from Southwest

Location: Geilenkirchen Airport

Current Time: May 5, 2015 at 9:19:23 PM

Latest Report: May 5, 2015 at 8:50 PM


Visibility: 10 mi

Pressure: 29.77 "Hg

Humidity: 55%

Dew point: 45 °F

Location of WürselenLocation

Historic Weather in Würselen — Graph

°F

Würselen temperature yesterday

Maximum temperature yesterday: 72 °F (at 4:50 PM)
Minimum temperature yesterday: 57 °F (at 1:50 AM)
Average temperature yesterday: 62 °F

Past Weeks' High & Low Weather Summary

 TemperatureHumidityPressure
High73 °F (May 5, 11:50 AM)100% (Apr 22, 5:50 AM)30.48 "Hg (Apr 22, 5:50 AM)
Low32 °F (Apr 28, 6:50 AM)30% (Apr 21, 6:50 PM)29.42 "Hg (May 5, 3:50 AM)
Average53 °F69%29.98 "Hg
* Reported Apr 20 7:50 PM — May 5 7:50 PM, Würselen, Weather by CustomWeather, © 2015

Note: Actual official high and low records may vary slightly from our data, if they occured in-between our weather recording intervals... More about our weather records

Advertising

Würselen weather history for previous 24 hours

 ConditionsComfort  
Time TempWeatherWind HumidityBarometerVisibility
7:50 PM
Tue, May 5
63 °FSunny.12 mph49%29.77 "Hg10 mi
6:50 PM63 °FPassing clouds.22 mph49%29.74 "HgN/A
5:50 PM63 °FScattered clouds.21 mph59%29.71 "HgN/A
4:50 PM63 °FScattered clouds.25 mph64%29.68 "HgN/A
3:50 PM57 °FScattered clouds.23 mph82%29.65 "HgN/A
2:50 PM63 °FSprinkles. Partly sunny.33 mph73%29.59 "Hg4 mi
1:50 PM72 °FScattered clouds.29 mph50%29.50 "HgN/A
12:50 PM73 °FScattered clouds.22 mph47%29.47 "HgN/A
11:50 AM73 °FPassing clouds.21 mph53%29.45 "HgN/A
10:50 AM72 °FPassing clouds.18 mph61%29.45 "HgN/A
9:50 AM68 °FScattered clouds.7 mph73%29.45 "HgN/A
8:50 AM63 °FScattered showers. Partly sunny.12 mph88%29.47 "HgN/A
7:50 AM64 °FSprinkles. Scattered clouds.20 mph83%29.45 "HgN/A
6:50 AM68 °FScattered showers. Partly cloudy.13 mph69%29.45 "HgN/A
5:50 AM64 °FClear.5 mph78%29.42 "Hg10 mi
4:50 AM66 °FClear.2 mph73%29.42 "Hg10 mi
3:50 AM64 °FClear.5 mph83%29.42 "Hg10 mi
2:50 AM61 °FClear.7 mph88%29.45 "Hg10 mi
1:50 AM59 °FRain. Passing clouds.5 mph94%29.47 "HgN/A
12:50 AM59 °FLight rain. Passing clouds.14 mph94%29.50 "HgN/A
11:50 PM
Mon, May 4
59 °FLight rain. Passing clouds.13 mph94%29.53 "HgN/A
10:50 PM61 °FLight rain. Passing clouds.10 mph83%29.59 "HgN/A
9:50 PM63 °FLight rain. Partly sunny.7 mph73%29.62 "HgN/A
Weather by CustomWeather, © 2015

See weather overviewHow to use our weather pages